User: anonymous   Login
Location: 相模原市立博物館
(35.5593°N, 139.3931°E)
Time: 14:40:50
(UTC+09:00)
Language:

XW-2B - Orbit

View from above orbital plane
View from above orbital plane
View from above satellite
View from above satellite

Ground track
Ground track

The orbit data is extracted from the following two-line orbital elements,

1 40911U 15049N   22026.72548568  .00002896  00000-0  14599-3 0  9997
2 40911  97.4904  31.9856 0014970 124.9591 350.5540 15.17864916351340
Epoch (UTC): 26 January 2022 17:24:41
Eccentricity: 0.0014970
inclination: 97.4904°
perigee height: 502 km
apogee height: 522 km
right ascension of ascending node: 31.9856°
argument of perigee: 124.9591°
revolutions per day: 15.17864916
mean anomaly at epoch: 350.5540°
orbit number at epoch: 35134

The dashed part of the orbit path shows where the satellite is in the earth's shadow,  

DLR